[[{"header":{"parameterUnit":"m.s-1","parameterCategory":1,"la1":30.2991,"la2":30.254,"lo1":-89.0895,"lo2":-89.0444,"dy":0.0017,"dx":0.0017,"nx":28,"ny":28,"refTime":"2024-12-12T09:00:00:Z","depth":0,"parameterNumber":2,"parameterNumberName":"U-component_of_WINDS"},"data":[0,0,0,0,0,0,0,0,0,0,0,0,0,0,0,0,0,0,0,0,0,0,0,0,0,0,0,0,0,0,0,0,0,0,0,0,0,0,0,0,0,0,0,0,0,0,0,0,0,0,0,0,0,0,0,0,0,0,-0.467,-0.467,0,-0.4709,-0.471,-0.471,-0.467,-0.4668,-0.4667,-0.4665,-0.4708,-0.471,-0.4713,0,0,0,0,0,0,0,0,0,0,0,0,0,-0.4561,-0.4563,-0.467,-0.467,-0.4671,-0.4709,-0.471,-0.471,-0.467,-0.4668,-0.4666,-0.4664,-0.4707,-0.471,-0.4713,0,0,0,0,0,0,0,0,0,0,0,0,0,-0.4605,-0.4564,-0.467,-0.4655,-0.4654,-0.4709,-0.471,-0.471,-0.4671,-0.4668,-0.4666,-0.4664,-0.4706,-0.471,-0.4714,-0.4785,0,0,-0.4726,-0.4727,0,0,0,0,0,0,0,0,-0.4603,-0.4609,-0.4657,-0.4656,-0.4656,-0.4682,-0.4687,-0.4736,-0.4671,-0.4665,-0.4665,-0.4662,-0.4701,-0.4706,-0.4718,-0.4787,-0.4789,-0.4726,-0.4728,-0.473,-0.4731,0,0,0,0,0,0,0,-0.46,-0.4607,-0.4685,-0.4658,-0.4657,-0.4647,-0.4651,-0.4696,-0.4696,-0.4665,-0.4662,-0.4667,-0.4701,-0.4715,-0.4719,-0.479,-0.4726,-0.4729,-0.4732,-0.4733,-0.4919,-0.4921,0,0,0,0,0,0,-0.4598,-0.4605,-0.4684,-0.4687,-0.4623,-0.4651,-0.4655,-0.4676,-0.4695,-0.4696,-0.4669,-0.4665,-0.4709,-0.4714,-0.472,-0.4806,-0.473,-0.4734,-0.4736,-0.4916,-0.4919,-0.4922,0,0,0,0,0,0,-0.4596,-0.4605,-0.4683,-0.4645,-0.4654,-0.4655,-0.4679,-0.4678,-0.4692,-0.4698,-0.4698,-0.4683,-0.4707,-0.4715,-0.4769,-0.4806,-0.4735,-0.4739,-0.4913,-0.4917,-0.4921,-0.4977,0,0,0,0,0,0,-0.4593,-0.4605,-0.4632,-0.4646,-0.4656,-0.4731,-0.4682,-0.4681,-0.4699,-0.4694,-0.4712,-0.4713,-0.4706,-0.4763,-0.4773,-0.4811,-0.4742,-0.491,-0.4915,-0.4919,-0.4972,-0.4982,-0.4991,0,0,0,0,0,-0.4589,-0.4647,-0.4634,-0.4643,-0.469,-0.4733,-0.4739,-0.473,-0.4702,-0.4729,-0.4733,-0.4712,-0.48,-0.4769,-0.478,-0.4819,-0.4907,-0.4913,-0.4919,-0.4967,-0.498,-0.4991,0,0,0,0,0,0,-0.4639,-0.4648,-0.4634,-0.4698,-0.4715,-0.4726,-0.4761,-0.4744,-0.477,-0.4764,-0.4752,-0.4756,-0.4814,-0.4822,-0.4787,-0.4889,-0.4849,-0.4858,-0.4882,-0.4895,-0.4904,-0.4902,-0.4745,0,0,0,0,0,-0.4657,-0.469,-0.4697,-0.4753,-0.4762,-0.476,-0.4778,-0.4769,-0.4787,-0.4794,-0.4802,-0.482,-0.4852,-0.4873,-0.4903,-0.4971,-0.4975,-0.5003,-0.5013,-0.5021,-0.5029,-0.5066,-0.5079,-0.4941,-0.4941,-0.4941,0,0,-0.4695,-0.4704,-0.4727,-0.4763,-0.4775,-0.4811,-0.4766,-0.4806,-0.4832,-0.48,-0.4852,-0.4858,-0.4878,-0.4939,-0.4967,-0.4948,-0.5067,-0.5028,-0.5035,-0.5038,-0.5073,-0.5086,-0.5098,-0.4945,-0.4944,-0.4944,0,0,-0.4784,-0.4794,-0.4841,-0.4854,-0.4872,-0.487,-0.4881,-0.4895,-0.4897,-0.4949,-0.4925,-0.4956,-0.5011,-0.5026,-0.5041,-0.5132,-0.5114,-0.5142,-0.5194,-0.523,-0.5241,-0.525,-0.5284,-0.5296,-0.5149,-0.515,-0.515,0,-0.4829,-0.4881,-0.4868,-0.4909,-0.4926,-0.4897,-0.4945,-0.4958,-0.4985,-0.4998,-0.4975,-0.5042,-0.5053,-0.5118,-0.5141,-0.5153,-0.5166,-0.5141,-0.524,-0.5249,-0.5258,-0.529,-0.5303,-0.5153,-0.5153,-0.5152,-0.5152,0,-0.4937,-0.4973,-0.501,-0.5036,-0.5056,-0.5101,-0.5094,-0.5117,-0.5105,-0.5106,-0.5158,-0.517,-0.5201,-0.5215,-0.5205,-0.5278,-0.5266,-0.5242,-0.5202,-0.5275,-0.5305,-0.5317,-0.5158,-0.5157,-0.5156,-0.5155,0,0,-0.5061,-0.5077,-0.5091,-0.5102,-0.5119,-0.5147,-0.519,-0.5219,-0.5239,-0.5258,-0.5294,-0.534,-0.5318,-0.5334,-0.5325,-0.5356,-0.5429,-0.5328,-0.5328,-0.5348,-0.5511,-0.5531,-0.5545,-0.5415,-0.5418,-0.5419,-0.551,0,-0.5151,-0.5225,-0.5213,-0.5284,-0.5318,-0.5289,-0.5327,-0.5341,-0.5342,-0.5371,-0.5371,-0.5405,-0.5371,-0.5381,-0.5411,-0.5414,-0.5462,-0.5407,-0.545,-0.5452,-0.5448,-0.556,-0.5581,-0.5666,-0.5521,-0.5523,-0.5525,0,-0.5266,-0.5288,-0.5363,-0.5374,-0.5388,-0.5421,-0.5447,-0.5474,-0.549,-0.5488,-0.5506,-0.549,-0.5533,-0.549,-0.5549,-0.5512,-0.5528,-0.5532,-0.5535,-0.5541,-0.5494,-0.557,-0.5693,-0.5706,-0.5543,-0.5541,-0.554,0,-0.535,-0.5399,-0.545,-0.546,-0.5474,-0.5498,-0.5505,-0.5518,-0.5536,-0.5558,-0.557,-0.5597,-0.5612,-0.5634,-0.5626,-0.5595,-0.5686,-0.5643,-0.5687,-0.5687,-0.571,-0.5709,-0.5838,-0.5717,-0.5717,-0.5717,-0.5716,0,-0.5453,-0.55,-0.5488,-0.552,-0.5571,-0.5557,-0.5608,-0.5612,-0.5623,-0.5655,-0.5631,-0.5662,-0.5649,-0.5678,-0.5672,-0.5722,-0.5729,-0.5729,-0.5727,-0.5732,-0.5733,-0.5745,-0.5739,-0.572,-0.5719,-0.5719,-0.5718,0,-0.5557,-0.5551,-0.5605,-0.5612,-0.5615,-0.5653,-0.566,-0.5689,-0.5687,-0.5728,-0.5736,-0.5733,-0.5767,-0.576,-0.5797,-0.5792,-0.5855,-0.5845,-0.585,-0.5849,-0.5893,-0.589,-0.6037,-0.6056,-0.5921,-0.5922,-0.5923,0,-0.5625,-0.566,-0.5671,-0.569,-0.5699,-0.573,-0.5748,-0.5734,-0.5754,-0.5773,-0.58,-0.5831,-0.5856,-0.591,-0.5911,-0.5939,-0.5931,-0.598,-0.5935,-0.5939,-0.5933,-0.5932,-0.5936,-0.599,-0.5992,-0.5993,-0.5994,0,-0.5745,-0.5739,-0.5766,-0.5791,-0.5813,-0.5832,-0.5849,-0.5866,-0.5854,-0.5877,-0.591,-0.5929,-0.5966,-0.5997,-0.6022,-0.6029,-0.601,-0.6007,-0.6019,-0.6026,-0.6028,-0.6029,-0.5877,-0.6005,-0.6004,-0.6003,-0.6003,-0.6002,-0.5834,-0.5864,-0.5876,-0.5906,-0.5917,-0.5933,-0.5961,-0.5961,-0.5989,-0.6017,-0.6007,-0.6045,-0.6058,-0.609,-0.61,-0.613,-0.6112,-0.6128,-0.6133,-0.6138,-0.6144,-0.6021,-0.6134,-0.6134,-0.6134,-0.6133,-0.6133,0,-0.5954,-0.596,-0.5987,-0.6011,-0.6035,-0.6012,-0.603,-0.6051,-0.6085,-0.6098,-0.6122,-0.616,-0.619,-0.6192,-0.622,-0.6243,-0.6235,-0.6251,-0.625,-0.6252,-0.6158,-0.6146,-0.6257,-0.6257,-0.6257,-0.6257,-0.6257,-0.6257,-0.602,-0.6069,-0.6065,-0.612,-0.6125,-0.6162,-0.6174,-0.6188,-0.6199,-0.6242,-0.6266,-0.6267,-0.6276,-0.6304,-0.633,-0.633,-0.6342,-0.6362,-0.6359,-0.6271,-0.6259,-0.6247,-0.6236,-0.6364,-0.6364,-0.645,-0.6451,-0.6452]},{"header":{"parameterUnit":"m.s-1","parameterCategory":1,"la1":30.2991,"la2":30.254,"lo1":-89.0895,"lo2":-89.0444,"dy":0.0017,"dx":0.0017,"nx":28,"ny":28,"refTime":"2024-12-12T09:00:00:Z","depth":0,"parameterNumber":3,"parameterNumberName":"V-component_of_WINDS"},"data":[0,0,0,0,0,0,0,0,0,0,0,0,0,0,0,0,0,0,0,0,0,0,0,0,0,0,0,0,0,0,0,0,0,0,0,0,0,0,0,0,0,0,0,0,0,0,0,0,0,0,0,0,0,0,0,0,0,0,-4.647,-4.6471,0,-4.6619,-4.6621,-4.6623,-4.656,-4.6556,-4.6553,-4.6549,-4.6701,-4.6708,-4.6715,0,0,0,0,0,0,0,0,0,0,0,0,0,-4.6128,-4.6134,-4.647,-4.6471,-4.6473,-4.6619,-4.6621,-4.6623,-4.6561,-4.6556,-4.6552,-4.6548,-4.6698,-4.6707,-4.6716,0,0,0,0,0,0,0,0,0,0,0,0,0,-4.6277,-4.6136,-4.6469,-4.646,-4.646,-4.6619,-4.6621,-4.6624,-4.6562,-4.6556,-4.6551,-4.6546,-4.6695,-4.6706,-4.6717,-4.6892,0,0,-4.6751,-4.6755,0,0,0,0,0,0,0,0,-4.6268,-4.6289,-4.6459,-4.6461,-4.6462,-4.6565,-4.6556,-4.6714,-4.6563,-4.6523,-4.6549,-4.6543,-4.666,-4.6673,-4.6713,-4.69,-4.6906,-4.6752,-4.6758,-4.6763,-4.6766,0,0,0,0,0,0,0,-4.6258,-4.6282,-4.6529,-4.6462,-4.6463,-4.6447,-4.6463,-4.6585,-4.662,-4.6526,-4.6522,-4.6541,-4.6659,-4.6703,-4.6716,-4.6908,-4.6751,-4.6761,-4.6768,-4.6772,-4.7245,-4.7251,0,0,0,0,0,0,-4.6248,-4.6274,-4.6524,-4.6533,-4.635,-4.6458,-4.6475,-4.6538,-4.6618,-4.6625,-4.6545,-4.6537,-4.6686,-4.6703,-4.6721,-4.6932,-4.6763,-4.6773,-4.678,-4.724,-4.7247,-4.7253,0,0,0,0,0,0,-4.6241,-4.6271,-4.6518,-4.6403,-4.6433,-4.6469,-4.654,-4.6543,-4.6587,-4.6633,-4.6638,-4.6583,-4.6683,-4.6706,-4.685,-4.6937,-4.6778,-4.6788,-4.7233,-4.7242,-4.725,-4.7356,0,0,0,0,0,0,-4.6231,-4.6268,-4.6336,-4.6405,-4.6439,-4.6646,-4.6546,-4.655,-4.6606,-4.6597,-4.667,-4.6677,-4.668,-4.6834,-4.6861,-4.6949,-4.6797,-4.7225,-4.7237,-4.7247,-4.7345,-4.7367,-4.7386,0,0,0,0,0,-4.6219,-4.636,-4.634,-4.6371,-4.6525,-4.6651,-4.6671,-4.6673,-4.6613,-4.6681,-4.6711,-4.6674,-4.6923,-4.685,-4.688,-4.6972,-4.722,-4.7233,-4.7246,-4.7335,-4.7363,-4.7386,0,0,0,0,0,0,-4.63,-4.6368,-4.6347,-4.6515,-4.6577,-4.664,-4.6726,-4.6702,-4.6782,-4.677,-4.6769,-4.6786,-4.6935,-4.6968,-4.6885,-4.7146,-4.7062,-4.7082,-4.7119,-4.7146,-4.7166,-4.7155,-4.6806,0,0,0,0,0,-4.6337,-4.6435,-4.6489,-4.6631,-4.6663,-4.669,-4.6744,-4.6741,-4.6805,-4.6832,-4.6871,-4.6935,-4.7027,-4.7088,-4.7175,-4.7349,-4.7363,-4.7427,-4.7447,-4.7464,-4.7482,-4.7576,-4.7604,-4.7297,-4.7297,-4.7297,0,0,-4.6415,-4.6465,-4.6526,-4.6648,-4.6697,-4.6797,-4.6712,-4.6822,-4.6896,-4.6848,-4.6987,-4.7019,-4.7089,-4.7249,-4.7321,-4.7281,-4.757,-4.7481,-4.7495,-4.7503,-4.7592,-4.7621,-4.7647,-4.7306,-4.7305,-4.7303,0,0,-4.6609,-4.6656,-4.678,-4.683,-4.6904,-4.692,-4.695,-4.7017,-4.7036,-4.7176,-4.7142,-4.7229,-4.7388,-4.744,-4.7487,-4.77,-4.7669,-4.7728,-4.7837,-4.7929,-4.7953,-4.7974,-4.805,-4.8077,-4.7745,-4.7746,-4.7746,0,-4.6696,-4.6847,-4.6846,-4.6959,-4.7013,-4.6975,-4.71,-4.7148,-4.7247,-4.7285,-4.7238,-4.7437,-4.7482,-4.7653,-4.7705,-4.7744,-4.7777,-4.772,-4.7949,-4.7971,-4.7991,-4.8063,-4.8092,-4.7752,-4.7751,-4.7751,-4.775,0,-4.695,-4.7055,-4.7146,-4.7243,-4.7308,-4.7426,-4.7442,-4.7508,-4.7498,-4.7519,-4.7661,-4.7714,-4.7811,-4.7851,-4.7843,-4.8022,-4.7994,-4.7949,-4.7864,-4.8027,-4.8095,-4.8123,-4.7762,-4.7759,-4.7757,-4.7756,0,0,-4.72,-4.7295,-4.7329,-4.7372,-4.7451,-4.7531,-4.7647,-4.7743,-4.7799,-4.7868,-4.7965,-4.81,-4.8059,-4.8112,-4.8109,-4.8189,-4.8354,-4.8133,-4.8135,-4.8173,-4.8554,-4.8588,-4.8621,-4.8334,-4.8339,-4.8343,-4.8548,0,-4.74,-4.7604,-4.7607,-4.7794,-4.789,-4.7855,-4.7955,-4.8014,-4.8037,-4.8121,-4.8145,-4.8241,-4.8179,-4.8211,-4.8289,-4.8318,-4.8431,-4.8303,-4.8424,-4.8428,-4.8408,-4.8656,-4.8693,-4.8884,-4.8575,-4.8579,-4.8583,0,-4.766,-4.7739,-4.7936,-4.8001,-4.8041,-4.8132,-4.822,-4.8301,-4.8367,-4.8377,-4.8437,-4.8421,-4.8538,-4.845,-4.8611,-4.8524,-4.8574,-4.8595,-4.8603,-4.8614,-4.8516,-4.8675,-4.8945,-4.8974,-4.8624,-4.8621,-4.8618,0,-4.7823,-4.7978,-4.8116,-4.8154,-4.8233,-4.8297,-4.8333,-4.8393,-4.8451,-4.8527,-4.8564,-4.8653,-4.8701,-4.877,-4.8778,-4.8713,-4.894,-4.8853,-4.8952,-4.8952,-4.9002,-4.8999,-4.9284,-4.9033,-4.9033,-4.9032,-4.9032,0,-4.8046,-4.8169,-4.819,-4.8275,-4.841,-4.8412,-4.8545,-4.8575,-4.8629,-4.8719,-4.8693,-4.8777,-4.8783,-4.887,-4.8877,-4.9009,-4.9031,-4.9042,-4.9043,-4.9045,-4.9044,-4.9078,-4.9065,-4.904,-4.9038,-4.9037,-4.9035,0,-4.8251,-4.8271,-4.8419,-4.8481,-4.85,-4.8597,-4.865,-4.8731,-4.875,-4.8864,-4.889,-4.8921,-4.9021,-4.9036,-4.9154,-4.9158,-4.9317,-4.9304,-4.9296,-4.9294,-4.9393,-4.9384,-4.9711,-4.9753,-4.9474,-4.9476,-4.9479,0,-4.8393,-4.8486,-4.8559,-4.8617,-4.8657,-4.8751,-4.881,-4.8814,-4.8876,-4.8957,-4.9028,-4.9126,-4.9205,-4.9366,-4.9399,-4.9488,-4.9477,-4.9585,-4.949,-4.9489,-4.9479,-4.9474,-4.9483,-4.9604,-4.9607,-4.9609,-4.9611,0,-4.8642,-4.8647,-4.8733,-4.8823,-4.8893,-4.8964,-4.903,-4.9079,-4.9091,-4.9162,-4.9265,-4.9326,-4.9446,-4.9543,-4.9632,-4.9667,-4.9642,-4.9641,-4.9668,-4.9672,-4.9664,-4.967,-4.9347,-4.9633,-4.9631,-4.963,-4.9628,-4.9627,-4.8821,-4.8902,-4.8966,-4.9062,-4.9112,-4.9175,-4.9254,-4.9283,-4.9369,-4.9468,-4.9465,-4.9578,-4.964,-4.9757,-4.9798,-4.9886,-4.985,-4.9891,-4.9901,-4.9911,-4.9921,-4.965,-4.9902,-4.9901,-4.9901,-4.99,-4.99,0,-4.9069,-4.9108,-4.9197,-4.9291,-4.9366,-4.9336,-4.9407,-4.9472,-4.9572,-4.9633,-4.9711,-4.9829,-4.9923,-4.9962,-5.0055,-5.0117,-5.0108,-5.0141,-5.0137,-5.0146,-4.9947,-4.9914,-5.0147,-5.0147,-5.0147,-5.0147,-5.0147,-5.0147,-4.9207,-4.9343,-4.9356,-4.9516,-4.9554,-4.9665,-4.9708,-4.9766,-4.9814,-4.9947,-5.0026,-5.0051,-5.0103,-5.0198,-5.0283,-5.0292,-5.0327,-5.0367,-5.0371,-5.0185,-5.016,-5.0136,-5.0105,-5.0374,-5.0375,-5.0562,-5.0563,-5.0565]}]]